Weather in Katerinopil

Ukraine / Cherkassi District     48˚56′05″N   30˚58′51″E
temp.,
°C
wind,
m/s
gust,
m/s
humid.,
%
clouds,
%
prec.,
mm/h
press.,
hPa
HPBL,
m
28 november, sat
sat2823:00+3˚wnw2678100 0.0 1020218
02:00+3˚nw2384100 0.0 1019127
05:00+3˚nnw1290100 0.0 101854
08:00+3˚w1191100 0.0 101861
11:00+4˚wsw2390100 0.0 1019216
14:00+5˚w2382100 0.0 1018464
17:00+4˚wnw2388100 0.1 1018333
20:00+3˚sw1190100 0.1 101822
29 november, sun
sun2923:00+2˚w2288100 0.0 101930
02:00+2˚nw2392100 0.0 101983
05:00+2˚nw2295100 0.0 1019132
08:00+1˚s1194100 0.1 1020110
11:00+3˚sw227898 0.0 1021439
14:00+3˚ssw227698 0.0 1021513
17:00+2˚ssw128565 0.0 102175
20:00+2˚nnw008078 0.0 102283
30 november, mon
mon3023:00+2˚nnw1180100 0.0 102294
02:00+2˚nnw3480100 0.0 1022265
05:00+1˚n348992 0.0 1022197
08:00n359194 0.0 1023255
11:00+1˚nne3586100 0.1 1024363
14:00+2˚n4781100 0.3 1024533
17:00n5895100 0.6 1025482
20:00n5896100 2.4 1025478
1 december, tue
tue123:00n6996100 1.6 1026518
02:00−1˚nne5997100 2.9 1026497
05:00−1˚n51093100 0.4 1026449
08:00−1˚nne51094100 0.6 1027442
11:00nne5997100 0.5 1026454
14:00nne5797100 0.8 1026313
17:00+1˚nne4798100 0.0 1026267
20:00+1˚nne35100100 0.1 1026198
2 december, wed
wed223:00+1˚ne36100100 0.0 1026251
02:00+1˚ne3599100 0.1 1026317
05:00+1˚ene2499100 0.1 1026261
08:00+1˚e2499100 0.1 1026253
11:00+1˚ene3498100 0.1 1027247
14:00+2˚e2498100 0.1 1026240
17:00+1˚e3598100 0.0 1026287
20:00+2˚e3698100 0.1 1027391